Location: Johnson City
(36.3130°N, 82.3540°W)
Time: 12:22:23
(UTC-05:00)

Hubble Space Telescope - Pass Details

Date: 02 December 2021
Orbit: 534 x 538 km, 28.5° (Epoch: 19 January)

Event Time Altitude Azimuth Distance (km) Brightness Sun altitude
Exits shadow 05:13:51 22° 173° (S) 1,199 2.6 -25.5°
Drops below altitude 10° 05:16:22 10° 137° (SE) 1,772 4.1 -25.0°
Sets 05:18:58 0° 122° (ESE) 2,661 5.4 -24.5°
